Weather in Kitchener

Canada     43°26′21″N   80°28′20″W
temp.,
°C
wind,
m/s
gust,
m/s
humid.,
%
clouds,
%
prec.,
mm/h
press.,
hPa
HPBL,
m
13 may, thu
thu1323:00+5nnw411720 0.0 1028186
02:00+4nw412615 0.0 1028198
05:00+3nw410660 0.0 1028160
08:00+7nw58695 0.0 1028196
11:00+14nnw565662 0.0 1027703
14:00+16nnw564752 0.4 10262199
17:00+15nw465581 0.0 1025978
20:00+11nw48712 0.1 1026176
14 may, fri
fri1423:00+6nw34640 0.0 102758
02:00+6nw33520 0.0 102728
05:00+5nw33511 0.0 102726
08:00+8nw34565 0.0 1028118
11:00+15w22435 0.0 1027783
14:00+17w343823 0.0 10252253
17:00+17w54437 0.0 10242068
20:00+12wnw36685 0.0 1025112
15 may, sat
sat1523:00+9w22671 0.0 102617
02:00+7w22711 0.0 102511
05:00+7wnw227320 0.0 102610
08:00+10sw226956 0.0 1026112
11:00+16sw345214 0.1 1025913
14:00+18wsw334199 0.3 10242417
17:00+17nw1345100 0.0 10231923
20:00+14n3367100 0.0 102350
16 may, sun
sun1623:00+11n22727 0.0 102421
02:00+9nne22785 0.0 102510
05:00+8ne2280100 0.0 102511
08:00+11ene2376100 0.0 1025122
11:00+16se33536 0.0 10241051
14:00+18ese33388 0.0 10232132
17:00+19ese334027 0.0 10222194
20:00+14ese476985 0.0 1023161
17 may, mon
mon1723:00+10ese366525 0.0 102395
02:00+9ese23802 0.0 102326
05:00+8e3587100 0.0 102282
08:00+11e4780100 0.0 1023233
11:00+16ese5665100 0.0 1021717
14:00+19ese5658100 0.0 10201431
17:00+18ese4460100 0.1 10201135
20:00+15e35810 0.1 1021117